Home   Weather   Beckum   Past weeks

Flag for Germany Past Weather in Beckum, North Rhine-Westphalia, Germany — Yesterday and Last 2 Weeks

Now
46 °F

Passing clouds.


Feels Like: 41 °F
Forecast: 40 / 45 °F
Wind: 13 mph from Southwest

Location: Paderborn / Lippstadt

Current Time: Dec 9, 2016 at 5:08:18 am

Latest Report: Dec 9, 2016 at 4:20 am


Visibility: 5 mi

Pressure: 30.30 "Hg

Humidity: 87%

Dew Point: 43 °F

Location of BeckumLocation

Past Weather in Beckum — Graph

°F

Beckum Temperature Yesterday

Maximum temperature yesterday: 54 °F (at 11:50 am)
Minimum temperature yesterday: 45 °F (at 8:20 pm)
Average temperature yesterday: 48 °F

High & Low Weather Summary for the Past Weeks

 TemperatureHumidityPressure
High54 °F (Dec 8, 11:50 am)100% (Nov 27, 9:50 am)30.57 "Hg (Nov 27, 9:50 am)
Low18 °F (Nov 29, 6:50 am)28% (Nov 30, 11:50 am)30.04 "Hg (Nov 27, 12:50 am)
Average35 °F76%30.29 "Hg
* Reported Nov 24 3:20 am — Dec 9 3:50 am, Beckum, Weather by CustomWeather, © 2016

Note: Actual official high and low records may vary slightly from our data, if they occured in-between our weather recording intervals... More about our weather records

Advertising

Beckum Weather History for the Previous 24 Hours

Scroll right to see more
 ConditionsComfort  
Time TempWeatherWind HumidityBarometerVisibility
3:50 am
Fri, Dec 9
45 °FPassing clouds.13 mph93%30.30 "Hg5 mi
3:20 am45 °FPassing clouds.14 mph93%30.30 "Hg5 mi
2:50 am45 °FPassing clouds.14 mph87%30.30 "Hg4 mi
2:20 am45 °FPassing clouds.14 mph87%30.30 "Hg4 mi
1:50 am43 °FFog.15 mph93%30.30 "Hg3 mi
1:20 am43 °FPassing clouds.14 mph93%30.30 "Hg4 mi
12:50 am43 °FPassing clouds.13 mph87%30.30 "HgN/A
12:20 am46 °FPassing clouds.17 mph71%30.33 "HgN/A
11:50 pm
Thu, Dec 8
46 °FPartly cloudy.12 mph66%30.33 "HgN/A
11:20 pm46 °FPassing clouds.14 mph66%30.33 "HgN/A
10:50 pm46 °FPassing clouds.14 mph66%30.30 "HgN/A
10:20 pm48 °FPartly cloudy.14 mph58%30.30 "HgN/A
9:50 pm46 °FSprinkles. Partly cloudy.14 mph57%30.30 "HgN/A
9:20 pm46 °FPartly cloudy.14 mph53%30.30 "HgN/A
8:50 pm45 °FClear.14 mph57%30.30 "Hg10 mi
8:20 pm45 °FClear.10 mph53%30.33 "Hg10 mi
7:50 pm48 °FClear.13 mph40%30.30 "Hg10 mi
6:50 pm46 °FClear.13 mph43%30.30 "Hg10 mi
6:20 pm48 °FClear.8 mph40%30.30 "Hg10 mi
5:50 pm48 °FClear.10 mph40%30.30 "Hg10 mi
5:20 pm46 °FClear.9 mph46%30.33 "Hg10 mi
4:50 pm48 °FClear.10 mph43%30.33 "Hg10 mi
4:20 pm50 °FClear.10 mph37%30.30 "Hg10 mi
3:50 pm50 °FSunny.9 mph37%30.30 "Hg10 mi
3:20 pm50 °FSunny.8 mph37%30.33 "Hg10 mi
2:50 pm50 °FSunny.7 mph43%30.33 "Hg10 mi
2:20 pm52 °FSunny.6 mph38%30.33 "Hg10 mi
1:50 pm52 °FSunny.8 mph38%30.33 "Hg10 mi
1:20 pm54 °FSunny.8 mph35%30.33 "Hg10 mi
12:50 pm52 °FSunny.6 mph41%30.33 "Hg10 mi
12:20 pm54 °FSunny.9 mph38%30.36 "Hg10 mi
11:50 am54 °FSunny.10 mph38%30.36 "Hg10 mi
11:20 am52 °FSunny.10 mph41%30.36 "Hg10 mi
10:50 am50 °FSunny.9 mph43%30.36 "Hg10 mi
10:20 am50 °FSunny.10 mph47%30.39 "Hg10 mi
9:50 am48 °FSunny.13 mph50%30.39 "Hg10 mi
9:20 am48 °FSunny.13 mph50%30.39 "Hg10 mi
8:50 am48 °FSunny.13 mph50%30.39 "Hg10 mi
8:20 am48 °FSunny.15 mph54%30.39 "Hg10 mi
7:50 am48 °FClear.14 mph54%30.39 "Hg10 mi
7:20 am48 °FClear.13 mph54%30.39 "Hg10 mi
6:50 am48 °FClear.14 mph54%30.39 "Hg10 mi
6:20 am48 °FClear.14 mph54%30.39 "Hg10 mi
5:50 am46 °FClear.12 mph57%30.39 "Hg10 mi
5:20 am46 °FClear.13 mph57%30.39 "Hg10 mi
Weather by CustomWeather, © 2016

See weather overviewHow to use our weather pages